Regional Weather Roundup
Issued by NWS

Home | Current Version | Previous Version | Text Only | Print | Product List | Glossary Off
Versions: 1 2 3 4 5 6 7 8 9 10 11 12 13 14 15 16 17 18 19 20 21 22 23 24 25 26 27 28 29 30 31 32 33 34 35 36 37 38 39 40 41 42 43 44 45 46 47 48 49 50

151
ASUS43 KMKX 240720
RWRWI

WISCONSIN REGIONAL WEATHER ROUNDUP
NATIONAL WEATHER SERVICE MILWAUKEE/SULLIVAN WI
100 AM CST WED JAN 24 2018

NOTE: "FAIR" INDICATES FEW OR NO CLOUDS BELOW 12,000 FEET WITH NO
SIGNIFICANT WEATHER AND/OR OBSTRUCTIONS TO VISIBILITY.

WIZ001-002-006>008-014>016-023>028-240800-
NORTHWEST WISCONSIN

CITY           SKY/WX    TMP DP  RH WIND       PRES   REMARKS
SUPERIOR ARPT  FAIR       8   3  82 CALM      30.19S
ASHLAND        CLOUDY    10   8  92 SW3       30.19R
HAYWARD        CLOUDY     5   0  79 CALM      30.16S
SIREN          FAIR       4   1  86 CALM      30.18F
CUMBERLAND     MOCLDY     3   0  85 CALM      30.17R
RICE LAKE      FAIR       2  -1  87 CALM      30.20R
CHETEK         MOCLDY     6   4  89 CALM      30.19S
LADYSMITH      FAIR      13  11  90 CALM      30.17S
EAU CLAIRE     FAIR      11   9  92 CALM      30.19R
MENOMONIE      FAIR      10   7  90 W3        30.21R
NEW RICHMOND   FAIR       4   0  83 CALM      30.20R
OSCEOLA        FAIR       5   2  88 SE6       30.22F WCI  -6
$$

WIZ003>005-009-010-017-018-240800-
NORTH CENTRAL WISCONSIN

CITY           SKY/WX    TMP DP  RH WIND       PRES   REMARKS
MANITOWISH WTR FAIR       1  -1  92 CALM      30.12R
ARBOR VITAE    FAIR       9   6  89 CALM      30.12R
WOODRUFF       FAIR       9   6  89 CALM      30.12R
RHINELANDER    FAIR       9   7  92 CALM      30.12S
EAGLE RIVER    FAIR       9   5  86 CALM      30.11S
LAND O LAKES   CLOUDY     9   6  90 NE3       30.13S
PHILLIPS       FAIR       3   1  91 CALM      30.13S
TOMAHAWK       FAIR       6   4  89 CALM      30.14R
MEDFORD        FAIR      14  10  86 N3        30.13S
MERRILL        FAIR      15  11  84 CALM      30.15R
$$

WIZ029-030-035-036-043>047-240800-
CENTRAL WISCONSIN

CITY           SKY/WX    TMP DP  RH WIND       PRES   REMARKS
WAUSAU         FAIR      18  13  80 N5        30.14R WCI  11
MOSINEE        FAIR      14  12  92 NW6       30.16R WCI   5
MARSHFIELD     FAIR      13  11  92 N5        30.13F WCI   5
STEVENS POINT  FAIR      13  12  98 CALM      30.16S
WAUPACA        FAIR      20  16  83 N3        30.18R
WAUTOMA        CLOUDY    22  19  89 CALM      30.18R
WISC RAPIDS    FAIR      16  12  84 NW3       30.18R
CAMP DOUGLAS   NOT AVBL
$$

WIZ011>013-019>022-031-037>040-048>050-240800-
NORTHEAST WISCONSIN

CITY           SKY/WX    TMP DP  RH WIND       PRES   REMARKS
ANTIGO         FAIR       7   5  93 N6        30.12S WCI  -3
SHAWANO        FAIR      16  10  79 N5        30.19R WCI   9
OCONTO         FAIR      15  10  80 N7        30.19R WCI   5
STURGEON BAY   FAIR      15  11  83 N8        30.18R WCI   4
GREEN BAY      FAIR      18  13  80 N8        30.18R WCI   8
MANITOWOC      FAIR      19  14  81 N9        30.17R WCI   8
APPLETON       MOCLDY    19  12  73 N6        30.16R WCI  11
CLINTONVILLE   FAIR      18  12  79 N8        30.18R WCI   7
OSHKOSH        CLOUDY    23  15  71 N10       30.17R WCI  12
$$

WIZ032>034-041-042-053>061-240800-
SOUTHWEST WISCONSIN

CITY           SKY/WX    TMP DP  RH WIND       PRES   REMARKS
LA CROSSE      CLOUDY    21  17  84 N3        30.21R
SPARTA         CLOUDY    21  18  90 CALM      30.20R
VIROQUA        CLOUDY    21  19  95 CALM      30.16S
BOSCOBEL       CLOUDY    25  19  78 NW5       30.21R WCI  19
PRAIRIE DU CHI CLOUDY    24  17  74 NW6       30.21S WCI  17
PLATTEVILLE    CLOUDY    24  23  93 W5        30.18R WCI  18
$$

WIZ056-057-062-063-064-067-068-240800-
SOUTH CENTRAL WISCONSIN

CITY           SKY/WX    TMP DP  RH WIND       PRES   REMARKS
REEDSBURG      CLOUDY    23  20  89 NW3       30.18R
BARABOO/DELLS  CLOUDY    23  18  81 N3        30.17R
LONE ROCK      CLOUDY    25  21  85 NW5       30.19S WCI  19
MINERAL POINT  CLOUDY    27  23  86 N3        30.16R
MADISON        CLOUDY    24  19  81 N7        30.17R WCI  16
MIDDLETON      CLOUDY    26  21  81 NW7       30.17R WCI  19
WATERTOWN      CLOUDY    25  23  93 NW6       30.14S WCI  18
MONROE         CLOUDY    27  23  86 NW3       30.15R
JANESVILLE     CLOUDY    28  27  93 NW6       30.16R WCI  22
$$

WIZ051-052-058>065-066-070>072-240800-
SOUTHEAST WISCONSIN

CITY           SKY/WX    TMP DP  RH WIND       PRES   REMARKS
MILWAUKEE      CLOUDY    28  23  81 NW6       30.14S WCI  22
WAUKESHA       CLOUDY    25  21  86 NW7       30.15S WCI  17
MILWAUKEE/TIMM CLOUDY    27  21  80 NW6       30.15S WCI  20
RACINE         CLOUDY    26  23  88 W6        30.15F WCI  19
BURLINGTON     MOCLDY    25  21  82 NW3       30.14S
KENOSHA        CLOUDY    26  21  81 CALM      30.14F
FOND DU LAC    CLOUDY    24  16  71 N7        30.17R WCI  16
SHEBOYGAN      FAIR      22  18  85 N7        30.16R WCI  13
WEST BEND      CLOUDY    25  21  86 N7        30.15R WCI  17
JUNEAU         CLOUDY    25  19  78 N7        30.15S WCI  17
$$

LSZ147-162-240800-
LAKE SUPERIOR

STATION/POSITION TIME  TEMP    WIND        PRES    WAVE
                       AIR SEA DIR/SP/G            HT/PER
                 (UTC) (F)     (DEG/KT/KT) (MB)    (FT/S)
DEVILS ISLAND    0700   21      90/  8/ 10 1023.7R
SAXON HARBOR     0630   13     190/  4/  5 1022.0R
$$

LMZ867-665-643>646-240800-
LAKE MICHIGAN

STATION/POSITION TIME  TEMP    WIND        PRES    WAVE
                       AIR SEA DIR/SP/G            HT/PER
                 (UTC) (F)     (DEG/KT/KT) (MB)    (FT/S)
NORTHPORT PIER   0702   17     300/  5/ 17 1021.3
KEWAUNEE LAKESHO 0654   18     340/ 10/ 13 1020.8R
SHEBOYGAN LAKESH 0700   24     350/ 13/ 15 1022.3R
PORT WASHINGTON  0640   26     330/  3/  4 1022.0R
MILWAUKEE LAKESH 0700   28     290/  7/  9   N/A
KENOSHA   LAKESH 0700   26     290/  6/  9 1021.0
$$

TC  - TEMPERATURE IN CELSIUS
VSB - VISIBILITY IN STATUTE MILES
WCI - WIND CHILL INDEX
HX  - HEAT INDEX





USA.gov is the U.S. government's official web portal to all federal, state and local government web resources and services.